Tracking 19905 objects as of 17-Oct-2019
HD Live streaming from Space Station
objects crossing your sky now

SCATHA AKM

Track SCATHA AKM now!


NORAD ID: 29000
Int'l Code: 1979-007C
Perigee: 28,149.2 km
Apogee: 42,707.8 km
Inclination: 15.4 °
Period: 1,417.5 minutes
Semi major axis: 41799 km
RCS: 0.003 m2 (small)
Launch date: January 30, 1979
Source: United States (US)
Launch site: AIR FORCE EASTERN TEST RANGE (AFETR)

Note: This is a ROCKET BODY
aabbcc
Your satellite tracking list
Your tracking list is empty




NASA's NSSDC Master Catalog

Two Line Element Set (TLE):
1 29000U 79007C   19289.23426347 -.00000025  00000-0  00000+0 0  9991
2 29000  15.3861 314.5149 1741474  53.4849 312.1738  1.01588952 53186
Source of the keplerian elements: AFSPC